STARLINK-2757 (48604 NORAD) Tracking and Keplerian Element Data

This shows tracking and keplerian element data for the satellite.

Feedback or suggestion? Click here.




ElementValue
Catalog48604
NameSTARLINK-2757
Epoch Orbit1254
Epoch Day210.88909126
Epoch Year2021
RAAN140.483
Inclination53.055
Eccentricity0.000139
Argument of Perigee88.4861
Mean Anonmoly271.6287
Mean Motion15.06396354
Decay Rate-5.24E-06
L11 48604U 21041BD 21210.88909126 -.00000524 00000-0 -16279-4 0 9991
L22 48604 53.0550 140.4830 0001390 88.4861 271.6287 15.06396354 12547

Live tracking and technical data element details for STARLINK-2757 (NORAD 48604). STARLINK-2757 can be tracked NOW for your location showing map with azimuth and elevation plus other details from your city location.

Track the satellite on the map from your city or location and see movement details for azimuth, elevation, latitude, longitude, range, height, and movement on the map or in text.







IsCatalogInMostPopularTable: catalog: 48604, numindb: 20
Update: records affected: 1



GetName: 48604 STARLINK-2757

Hit Count: updated at: Sat, 31 Jul 2021 14:57:29 GMT